DW8463 Weather Reports


time (UTC)temp
C
wind
direction
speed
KPH
gust
KPH
rain 1hr
cm
rain 24hr
cm
rain mn
cm
humidity
%
barometer
mb
20260510141303 10 322 8.0 16.1 0.00 0.00 0.00 43 1019.4
20260510140803 10 0 4.8 12.9 0.00 0.00 0.00 43 1019.4
20260510140304 9 0 6.4 12.9 0.00 0.00 0.00 45 1019.4
20260510135306 10 0 9.7 19.3 0.00 0.00 0.00 53 1019.2
20260510134803 10 0 8.0 19.3 0.00 0.00 0.00 53 1019.2
20260510134304 9 0 11.3 16.1 0.00 0.00 0.00 53 1019.2
20260510132804 7 0 4.8 12.9 0.00 0.00 0.00 53 1019.2
20260510132306 7 0 3.2 4.8 0.00 0.00 0.00 53 1019.2
20260510130804 5 222 0.0 3.2 0.00 0.00 0.00 53 1019.0
20260510130304 5 219 1.6 4.8 0.00 0.00 0.00 56 1019.0
20260510125803 5 242 1.6 4.8 0.00 0.00 0.00 68 1018.9
20260510125306 4 235 4.8 9.7 0.00 0.00 0.00 68 1018.9
20260510124803 4 249 3.2 4.8 0.00 0.00 0.00 68 1018.9
20260510124304 3 272 1.6 4.8 0.00 0.00 0.00 68 1018.9
20260510123803 3 243 1.6 4.8 0.00 0.00 0.00 68 1018.7
20260510123304 3 254 1.6 3.2 0.00 0.00 0.00 68 1018.6
20260510122804 2 0 1.6 3.2 0.00 0.00 0.00 68 1018.5
20260510122306 2 0 0.0 1.6 0.00 0.00 0.00 68 1018.5
20260510121804 1 0 0.0 1.6 0.00 0.00 0.00 68 1018.4
20260510121304 1 0 0.0 0.0 0.00 0.00 0.00 68 1018.4
20260510120803 1 0 0.0 1.6 0.00 0.00 0.00 68 1018.3
20260510120303 1 0 0.0 0.0 0.00 0.00 0.00 68 1018.2
20260510114804 0 348 0.0 0.0 0.00 0.00 0.00 76 1018.2
20260510114303 0 317 0.0 0.0 0.00 0.00 0.00 76 1018.0
20260510113803 0 316 0.0 0.0 0.00 0.00 0.00 76 1017.9
20260510113303 0 316 0.0 0.0 0.00 0.00 0.00 76 1017.9
20260510112803 -1 315 0.0 0.0 0.00 0.00 0.00 76 1018.0
20260510112306 -1 316 0.0 0.0 0.00 0.00 0.00 76 1018.0
20260510111803 -1 316 0.0 0.0 0.00 0.00 0.00 76 1017.9
20260510111303 -1 316 0.0 0.0 0.00 0.00 0.00 76 1017.9
20260510110803 0 316 0.0 0.0 0.00 0.00 0.00 76 1017.9
20260510110303 0 316 0.0 0.0 0.00 0.00 0.00 76 1017.9
20260510105803 0 316 0.0 0.0 0.00 0.00 0.00 73 1017.6
20260510105306 0 316 0.0 0.0 0.00 0.00 0.00 73 1017.5
20260510104803 0 316 0.0 0.0 0.00 0.00 0.00 73 1017.5
20260510104304 -1 316 0.0 0.0 0.00 0.00 0.00 73 1017.5
20260510103803 -1 316 0.0 0.0 0.00 0.00 0.00 73 1017.5
20260510103304 0 316 0.0 0.0 0.00 0.00 0.00 73 1017.5
20260510102804 0 316 0.0 1.6 0.00 0.00 0.00 73 1017.4
20260510102306 0 316 0.0 1.6 0.00 0.00 0.00 73 1017.4
20260510101804 0 316 0.0 0.0 0.00 0.00 0.00 73 1017.3
20260510101304 -1 316 0.0 0.0 0.00 0.00 0.00 73 1017.2
20260510100804 0 316 0.0 0.0 0.00 0.00 0.00 73 1017.2
20260510100304 0 316 0.0 0.0 0.00 0.00 0.00 71 1017.1
20260510095803 0 316 0.0 0.0 0.00 0.00 0.00 63 1016.9
20260510095305 0 316 0.0 0.0 0.00 0.00 0.00 63 1016.8
20260510094803 0 316 0.0 0.0 0.00 0.00 0.00 63 1016.8
20260510094303 0 316 0.0 0.0 0.00 0.00 0.00 63 1016.8
20260510093803 0 316 0.0 0.0 0.00 0.00 0.00 63 1016.6
20260510092804 0 0 0.0 0.0 0.00 0.00 0.00 63 1016.6
20260510091304 0 0 0.0 0.0 0.00 0.00 0.00 63 1016.6
20260510090303 0 0 0.0 0.0 0.00 0.00 0.00 63 1016.5
20260510084804 0 0 0.0 0.0 0.00 0.00 0.00 65 1016.2
20260510084303 0 320 0.0 0.0 0.00 0.00 0.00 65 1016.2
20260510083803 0 314 0.0 0.0 0.00 0.00 0.00 65 1016.2
20260510083304 0 314 0.0 0.0 0.00 0.00 0.00 65 1016.2
20260510082804 0 314 0.0 0.0 0.00 0.00 0.00 65 1016.0
20260510080803 1 314 0.0 0.0 0.00 0.00 0.00 65 1015.8
20260510080304 1 314 0.0 0.0 0.00 0.00 0.00 63 1015.7
20260510075804 1 314 0.0 0.0 0.00 0.00 0.00 54 1015.6
20260510075306 1 314 0.0 0.0 0.00 0.00 0.00 54 1015.6
20260510074804 1 314 0.0 0.0 0.00 0.00 0.00 54 1015.7
20260510074304 1 314 0.0 0.0 0.00 0.00 0.00 54 1015.6
20260510073804 1 314 0.0 0.0 0.00 0.00 0.00 54 1015.6
20260510073303 1 314 0.0 0.0 0.00 0.00 0.00 54 1015.5
20260510072803 1 315 0.0 0.0 0.00 0.00 0.00 54 1015.5
20260510071804 1 315 0.0 0.0 0.00 0.00 0.00 54 1015.6
20260510071304 1 315 0.0 0.0 0.00 0.00 0.00 54 1015.5
20260510070804 1 315 0.0 0.0 0.00 0.00 0.00 54 1015.4
20260510070303 2 314 0.0 0.0 0.00 0.00 0.00 54 1015.4
20260510065306 2 314 0.0 0.0 0.00 0.00 0.00 48 1015.4
20260510064803 2 314 0.0 0.0 0.00 0.00 0.00 48 1015.3
20260510064303 2 314 0.0 0.0 0.00 0.00 0.00 48 1015.4
20260510062804 2 340 0.0 0.0 0.00 0.00 0.00 48 1015.3
20260510062306 3 0 0.0 0.0 0.00 0.00 0.00 48 1015.3
20260510061804 3 0 0.0 0.0 0.00 0.00 0.00 48 1015.2
20260510061304 3 0 0.0 0.0 0.00 0.00 0.00 48 1015.3
20260510060804 3 0 0.0 0.0 0.00 0.00 0.00 48 1015.3
20260510060303 3 0 0.0 3.2 0.00 0.00 0.00 48 1015.2
20260510055803 3 0 1.6 3.2 0.00 0.00 0.00 45 1015.2
20260510055306 3 0 0.0 1.6 0.00 0.00 0.00 45 1015.2
20260510054803 3 0 1.6 4.8 0.00 0.00 0.00 45 1015.1
20260510054303 3 0 0.0 1.6 0.00 0.00 0.00 45 1015.0
20260510053803 3 0 0.0 4.8 0.00 0.00 0.00 45 1015.0
20260510053304 3 0 1.6 4.8 0.00 0.00 0.00 45 1014.9
20260510052803 3 0 1.6 4.8 0.00 0.00 0.00 45 1014.9
20260510052306 3 0 1.6 4.8 0.00 0.00 0.00 45 1014.8
20260510051804 3 0 1.6 3.2 0.00 0.00 0.00 45 1014.8
20260510051304 3 0 1.6 4.8 0.00 0.00 0.00 45 1014.8
20260510050814 3 0 1.6 3.2 0.00 0.00 0.00 45 1014.7
20260510045803 4 0 0.0 1.6 0.00 0.00 0.00 41 1014.6
20260510045306 5 0 1.6 3.2 0.00 0.00 0.00 41 1014.6
20260510044803 5 0 0.0 1.6 0.00 0.00 0.00 41 1014.5
20260510044304 5 0 0.0 3.2 0.00 0.00 0.00 41 1014.5
20260510043804 5 0 1.6 3.2 0.00 0.00 0.00 41 1014.4
20260510043303 5 0 0.0 1.6 0.00 0.00 0.00 41 1014.3
20260510042306 5 0 1.6 3.2 0.00 0.00 0.00 41 1014.1
20260510041804 5 0 1.6 4.8 0.00 0.00 0.00 41 1014.0
20260510041303 5 0 1.6 4.8 0.00 0.00 0.00 41 1013.9
20260510040803 6 0 1.6 3.2 0.00 0.00 0.00 41 1013.9
20260510040304 6 0 1.6 3.2 0.00 0.00 0.00 41 1013.8
20260510035803 6 0 1.6 3.2 0.00 0.00 0.00 41 1013.7
20260510035306 6 0 0.0 3.2 0.00 0.00 0.00 41 1013.7
20260510034804 6 0 0.0 3.2 0.00 0.00 0.00 41 1013.6
20260510034304 6 0 1.6 4.8 0.00 0.00 0.00 41 1013.5
20260510033804 6 0 1.6 4.8 0.00 0.00 0.00 41 1013.5
20260510033303 6 0 1.6 4.8 0.00 0.00 0.00 41 1013.5
20260510032804 6 0 1.6 4.8 0.00 0.00 0.00 41 1013.4
20260510032306 6 0 0.0 3.2 0.00 0.00 0.00 41 1013.4
20260510031804 6 0 0.0 3.2 0.00 0.00 0.00 41 1013.4
20260510031303 6 0 0.0 1.6 0.00 0.00 0.00 41 1013.3
20260510030804 6 0 0.0 1.6 0.00 0.00 0.00 41 1013.2
20260510030304 6 0 0.0 1.6 0.00 0.00 0.00 41 1013.1
20260510025804 6 0 0.0 0.0 0.00 0.00 0.00 36 1013.0
20260510025306 7 0 0.0 1.6 0.00 0.00 0.00 36 1012.9
20260510024804 7 0 0.0 1.6 0.00 0.00 0.00 36 1012.9
20260510024304 7 0 0.0 1.6 0.00 0.00 0.00 36 1012.7
20260510023804 7 0 0.0 1.6 0.00 0.00 0.00 36 1012.6
20260510023303 7 309 0.0 1.6 0.00 0.00 0.00 36 1012.5
20260510022803 8 309 0.0 0.0 0.00 0.00 0.00 36 1012.4
20260510022306 8 309 0.0 0.0 0.00 0.00 0.00 36 1012.3
20260510021803 8 305 0.0 1.6 0.00 0.00 0.00 36 1012.2
20260510021303 8 304 1.6 4.8 0.00 0.00 0.00 36 1012.0
20260510020804 9 304 0.0 4.8 0.00 0.00 0.00 36 1012.0
20260510020303 10 329 1.6 4.8 0.00 0.00 0.00 36 1011.8
20260510015803 10 321 3.2 4.8 0.00 0.00 0.00 29 1011.8
20260510015306 10 302 3.2 8.0 0.00 0.00 0.00 29 1011.7
20260510014804 11 319 3.2 8.0 0.00 0.00 0.00 29 1011.6
20260510014304 11 319 3.2 12.9 0.00 0.00 0.00 29 1011.6
20260510013803 11 321 4.8 14.5 0.00 0.00 0.00 29 1011.4
20260510013303 11 310 6.4 11.3 0.00 0.00 0.00 29 1011.4
20260510012804 12 343 4.8 9.7 0.00 0.00 0.00 29 1011.3
20260510012306 12 331 6.4 14.5 0.00 0.00 0.00 29 1011.2
20260510011303 12 314 4.8 12.9 0.00 0.00 0.00 29 1010.9
20260510010804 12 333 8.0 12.9 0.00 0.00 0.00 29 1010.8
20260510010303 12 312 8.0 19.3 0.00 0.00 0.00 29 1010.7
20260510005804 12 330 8.0 19.3 0.00 0.00 0.00 27 1010.6
20260510004804 13 343 11.3 19.3 0.00 0.00 0.00 27 1010.4
20260510003304 13 348 12.9 25.7 0.00 0.00 0.00 27 1010.3
20260510002804 13 346 11.3 20.9 0.00 0.00 0.00 27 1010.2
20260510002306 13 352 11.3 19.3 0.00 0.00 0.00 27 1010.1
20260510001804 13 352 11.3 24.1 0.00 0.00 0.00 27 1010.1
20260510000804 14 337 11.3 19.3 0.00 0.00 0.00 27 1009.9
20260510000304 14 334 9.7 20.9 0.00 0.00 0.00 27 1009.9
20260509235804 14 300 8.0 22.5 0.00 0.00 0.00 27 1009.8
20260509235306 14 327 6.4 20.9 0.00 0.00 0.00 27 1009.8
20260509234803 14 337 12.9 32.2 0.00 0.00 0.00 27 1009.7
20260509234303 15 329 11.3 25.7 0.00 0.00 0.00 27 1009.7
20260509233804 15 305 8.0 20.9 0.00 0.00 0.00 27 1009.6
20260509233303 15 326 11.3 24.1 0.00 0.00 0.00 27 1009.6
20260509232804 15 336 8.0 19.3 0.00 0.00 0.00 27 1009.5
20260509231803 15 299 9.7 19.3 0.00 0.00 0.00 27 1009.3
20260509231304 15 348 11.3 24.1 0.00 0.00 0.00 27 1009.2
20260509230804 15 316 14.5 32.2 0.00 0.00 0.00 27 1009.1
20260509225306 15 302 11.3 33.8 0.00 0.00 0.00 27 1009.0
20260509224803 15 349 19.3 32.2 0.00 0.00 0.00 27 1008.9
20260509224304 15 348 19.3 29.0 0.00 0.00 0.00 27 1008.9
20260509223803 15 341 16.1 32.2 0.00 0.00 0.00 27 1008.9
20260509223304 15 303 16.1 29.0 0.00 0.00 0.00 27 1008.8
20260509222804 16 316 19.3 32.2 0.00 0.00 0.00 27 1008.7
20260509222306 16 326 11.3 24.1 0.00 0.00 0.00 27 1008.7
20260509221804 16 355 16.1 27.4 0.00 0.00 0.00 27 1008.7
20260509221303 16 320 12.9 27.4 0.00 0.00 0.00 27 1008.6
20260509220803 16 308 11.3 25.7 0.00 0.00 0.00 27 1008.5
20260509220304 16 322 16.1 29.0 0.00 0.00 0.00 27 1008.4
20260509215804 16 327 16.1 29.0 0.00 0.00 0.00 30 1008.5
20260509215306 16 352 19.3 32.2 0.00 0.00 0.00 30 1008.4
20260509214803 16 337 14.5 38.6 0.00 0.00 0.00 30 1008.4
20260509213803 16 304 16.1 41.8 0.00 0.00 0.00 30 1008.3
20260509212804 16 305 11.3 25.7 0.00 0.00 0.00 30 1008.2
20260509212305 16 311 16.1 32.2 0.00 0.00 0.00 30 1008.2
20260509211803 16 344 14.5 25.7 0.00 0.00 0.00 30 1008.1
20260509210803 16 331 19.3 32.2 0.00 0.00 0.00 30 1008.1
20260509210303 16 328 12.9 27.4 0.00 0.00 0.00 30 1008.1
20260509205803 16 279 12.9 24.1 0.00 0.00 0.00 29 1008.0
20260509205307 16 307 16.1 24.1 0.00 0.00 0.00 29 1007.9
20260509204804 16 330 16.1 27.4 0.00 0.00 0.00 29 1008.0
20260509204304 16 314 17.7 27.4 0.00 0.00 0.00 29 1008.0
20260509203804 16 340 16.1 29.0 0.00 0.00 0.00 29 1007.9
20260509203304 16 327 11.3 32.2 0.00 0.00 0.00 29 1007.8
20260509202306 16 317 16.1 27.4 0.00 0.00 0.00 29 1007.8
20260509201803 16 321 22.5 37.0 0.00 0.00 0.00 29 1007.7
20260509201304 16 348 16.1 25.7 0.00 0.00 0.00 29 1007.5
20260509200304 15 310 12.9 22.5 0.00 0.00 0.00 29 1007.4
20260509195802 15 315 19.3 33.8 0.00 0.00 0.00 33 1007.5
20260509195306 16 306 16.1 29.0 0.00 0.00 0.00 33 1007.5
20260509194303 16 334 19.3 37.0 0.00 0.00 0.00 33 1007.4
20260509193303 16 321 19.3 35.4 0.00 0.00 0.00 33 1007.4
20260509192803 16 351 14.5 27.4 0.00 0.00 0.00 33 1007.3
20260509192305 16 296 12.9 29.0 0.00 0.00 0.00 33 1007.2
20260509191802 16 300 19.3 32.2 0.00 0.00 0.00 33 1007.2
20260509191303 16 334 12.9 35.4 0.00 0.00 0.00 33 1007.1
20260509190802 16 334 12.9 29.0 0.00 0.00 0.00 33 1007.1
20260509190302 16 332 17.7 32.2 0.00 0.00 0.00 33 1007.0
20260509185802 16 322 19.3 32.2 0.00 0.00 0.00 36 1007.0
20260509185306 16 332 22.5 32.2 0.00 0.00 0.00 36 1006.9
20260509184802 16 309 20.9 37.0 0.00 0.00 0.00 36 1006.9
20260509184303 16 310 17.7 37.0 0.00 0.00 0.00 36 1006.9
20260509183803 16 320 16.1 33.8 0.00 0.00 0.00 36 1006.8
20260509183302 15 306 16.1 32.2 0.00 0.00 0.00 36 1006.8
20260509182803 16 291 17.7 32.2 0.00 0.00 0.00 36 1006.7
20260509181803 16 289 14.5 32.2 0.00 0.00 0.00 36 1006.6
20260509181302 16 327 20.9 33.8 0.00 0.00 0.00 36 1006.5
20260509180803 15 306 12.9 25.7 0.00 0.00 0.00 36 1006.4
20260509180302 15 306 19.3 33.8 0.00 0.00 0.00 36 1006.4
20260509175802 16 329 20.9 41.8 0.00 0.00 0.00 44 1006.3
20260509175306 16 329 11.3 33.8 0.00 0.00 0.00 44 1006.3
20260509174802 15 321 12.9 32.2 0.00 0.00 0.00 44 1006.2
20260509174302 15 6 19.3 35.4 0.00 0.00 0.00 44 1006.1
20260509173802 15 324 20.9 37.0 0.00 0.00 0.00 44 1006.2
20260509173302 15 330 14.5 35.4 0.00 0.00 0.00 44 1006.2
20260509172802 15 317 20.9 33.8 0.00 0.00 0.00 44 1006.2
20260509172306 15 345 20.9 32.2 0.00 0.00 0.00 44 1006.1
20260509171802 15 307 14.5 27.4 0.00 0.00 0.00 44 1006.1
20260509171303 15 318 19.3 32.2 0.00 0.00 0.00 44 1006.1
20260509170802 15 283 16.1 25.7 0.00 0.00 0.00 44 1006.1
20260509165803 15 318 12.9 35.4 0.00 0.00 0.00 54 1006.2
20260509165306 15 322 16.1 29.0 0.00 0.00 0.00 54 1006.2
20260509164803 15 322 11.3 29.0 0.00 0.00 0.00 54 1006.1
20260509164302 15 354 19.3 27.4 0.00 0.00 0.00 54 1006.1
20260509163802 14 339 14.5 25.7 0.00 0.00 0.00 54 1006.2
20260509163302 15 339 17.7 29.0 0.00 0.00 0.00 54 1006.2
20260509162802 14 332 14.5 32.2 0.00 0.00 0.00 54 1006.0
20260509161803 14 314 16.1 27.4 0.00 0.00 0.00 54 1006.0
20260509161303 14 351 14.5 27.4 0.00 0.00 0.00 54 1005.9
20260509160302 14 315 14.5 27.4 0.00 0.00 0.00 54 1005.9
20260509155802 14 318 17.7 32.2 0.00 0.00 0.00 61 1005.8
20260509155306 13 330 19.3 35.4 0.00 0.00 0.00 61 1005.8
20260509154803 13 338 16.1 29.0 0.00 0.00 0.00 61 1005.8
20260509154303 13 328 20.9 32.2 0.00 0.00 0.00 61 1005.8
20260509153803 13 343 19.3 29.0 0.00 0.00 0.00 61 1005.7
20260509153303 13 332 11.3 25.7 0.00 0.00 0.00 61 1005.7
20260509152305 13 340 11.3 22.5 0.00 0.00 0.00 61 1005.4
20260509151802 13 316 11.3 25.7 0.00 0.00 0.00 61 1005.3
20260509151302 13 329 12.9 27.4 0.00 0.00 0.00 61 1005.2
20260509150803 13 349 14.5 24.1 0.00 0.00 0.00 61 1005.1
20260509150303 13 350 9.7 25.7 0.00 0.00 0.00 61 1005.0
20260509145306 12 320 11.3 32.2 0.00 0.00 0.00 68 1004.8
20260509144302 11 297 16.1 29.0 0.00 0.00 0.00 68 1004.7
20260509143803 12 255 12.9 27.4 0.00 0.00 0.00 68 1004.6
20260509143302 12 322 11.3 22.5 0.00 0.00 0.00 68 1004.5
20260509142803 12 320 17.7 25.7 0.00 0.00 0.00 68 1004.5
20260509142306 12 318 16.1 32.2 0.00 0.00 0.00 68 1004.4
20260509141802 12 312 11.3 32.2 0.00 0.00 0.00 68 1004.3